Wind_Speed
28 29 28 28 28 28 28 28 28 27 27 27 27 27 26 25 26 26 25 25 25 25 25 25 25 25 25 25 26 27 26 27 28 28 28 28 29 29 29 29 29 28 29
30 30 30 29 29 29 28 28 27 26 26 26 26 25 25 25 25 25 24 23 23 23 22 22 22 23 23 24 24 24 25 26 27 26 26 27 26 27 27 27 26 26 27
30 30 30 29 29 29 28 27 27 26 26 25 25 24 23 24 23 23 22 21 21 20 20 20 20 20 21 21 22 23 24 24 23 22 21 21 21 23 23 24 24 25 26
29 28 28 28 27 27 27 26 26 25 25 24 23 22 21 21 21 21 20 19 18 18 18 17 17 18 19 19 19 19 20 20 18 18 17 18 19 20 20 22 23 23 23
28 27 26 26 26 25 25 24 23 23 22 21 20 19 19 19 19 18 17 16 16 15 15 15 15 15 15 15 14 15 15 16 16 16 16 17 17 18 19 20 21 21 21
26 25 25 25 24 23 23 23 22 21 20 19 18 18 17 16 16 15 15 15 14 14 14 14 13 13 13 12 12 12 13 13 14 14 15 15 17 18 18 18 18 19 20
24 23 23 22 22 22 21 21 20 19 18 17 16 15 15 14 13 13 12 12 12 12 12 11 11 12 12 11 11 12 12 12 13 13 14 15 16 16 17 17 18 18 18
21 20 20 19 18 18 18 17 16 16 16 15 15 14 13 11 11 10 10 11 10 9 9 9 9 9 9 10 10 11 11 11 11 12 13 14 14 15 15 15 16 17 17
18 17 16 15 14 13 12 12 12 12 12 12 12 11 10 10 9 9 9 8 8 7 7 7 6 7 7 9 9 9 9 10 10 10 11 11 12 12 13 14 14 14 15
15 14 13 11 10 8 8 8 8 8 8 9 10 10 10 9 9 8 8 7 6 6 6 7 6 7 7 7 7 7 8 8 8 9 9 10 10 11 11 11 12 12 12
12 10 9 7 5 5 5 5 6 6 7 8 8 9 9 8 8 7 7 7 6 6 5 5 5 5 5 5 6 6 6 7 7 7 7 8 8 8 8 8 8 8 9
8 6 5 4 3 3 3 4 5 6 7 7 7 7 7 7 7 7 7 7 6 5 4 4 4 4 4 4 4 4 4 4 4 4 4 5 5 5 5 5 6 6 7
4 3 3 3 3 4 4 4 5 6 7 7 7 6 5 5 6 6 5 5 5 4 3 3 3 3 3 3 2 1 1 1 2 2 3 3 3 4 4 5 5 6 6
0 2 3 4 5 5 5 6 6 6 6 6 5 5 5 6 5 5 5 4 4 3 3 3 3 4 3 3 2 2 1 1 1 2 2 3 3 4 5 5 6 6 7
3 4 5 6 6 6 6 6 6 6 6 6 6 6 7 7 7 6 6 5 5 5 5 5 5 5 5 5 4 4 4 4 4 5 5 5 5 5 5 6 6 7 7
6 7 7 7 7 7 8 8 7 7 7 7 7 8 8 8 8 7 6 6 7 7 8 8 8 7 7 7 7 7 7 7 7 6 6 6 6 7 7 7 7 8 9
9 9 10 10 9 9 9 9 9 9 10 10 10 10 10 9 9 9 9 10 10 10 10 10 10 10 10 10 9 9 8 8 7 7 7 7 7 7 7 8 8 9 10
11 12 12 11 11 11 11 11 11 11 12 12 12 12 11 11 12 12 12 13 13 13 13 13 13 12 11 11 10 10 9 9 8 8 8 8 8 8 8 9 9 10 11
12 12 12 12 12 12 13 13 14 14 15 15 15 14 14 14 14 14 14 14 15 15 14 14 13 13 12 12 11 11 10 10 10 9 9 9 9 9 9 10 10 11 11
13 13 13 13 13 14 14 15 16 17 17 16 16 16 16 16 16 16 15 15 15 15 15 14 13 13 13 12 12 12 11 11 11 10 10 10 10 11 11 11 11 12 12
14 14 14 14 14 14 15 17 17 17 17 17 17 17 17 17 17 17 16 16 16 15 15 14 14 13 13 13 13 12 12 12 11 11 11 11 11 11 11 12 12 13 13
15 14 15 15 15 16 17 17 17 18 18 18 18 18 18 18 18 17 17 16 16 15 14 14 14 14 13 13 13 12 12 12 12 12 12 12 12 12 12 13 13 14 15
15 15 15 16 17 18 18 18 18 18 18 18 18 18 18 17 17 16 16 16 15 15 14 14 14 14 13 13 12 12 12 12 12 12 12 12 12 13 13 14 15 16 17
16 16 17 17 18 18 18 18 18 18 18 17 17 17 17 16 16 16 16 16 15 15 15 14 14 13 13 12 12 12 12 12 12 12 12 12 13 14 15 15 16 17 18
16 16 17 17 17 17 17 17 16 16 16 16 16 16 16 15 15 15 15 15 15 14 14 13 13 12 12 11 11 11 11 11 12 12 12 13 14 15 16 17 18 20 21
15 15 16 16 16 16 16 15 15 15 15 15 15 15 15 14 14 14 14 13 13 13 12 12 11 11 10 10 10 10 10 10 11 12 13 14 16 17 18 19 20 22 24
Wind_Direction
286 284 281 279 276 276 275 275 275 273 272 271 271 270 270 269 270 270 270 268 264 261 260 259 259 257 256 254 253 253 254 255 255 256 259 259 258 259 260 262 264 268 270
285 282 280 278 276 276 275 274 273 273 271 271 271 270 269 270 270 269 269 267 265 261 260 259 258 256 253 251 250 250 251 253 254 254 257 257 259 261 262 263 266 269 270
286 283 281 279 277 275 274 273 272 272 271 271 269 268 269 271 270 266 265 265 263 259 259 256 254 256 254 251 250 250 250 252 252 252 255 257 260 260 261 265 268 270 271
288 284 281 278 276 274 272 270 270 270 269 268 265 265 267 268 267 264 261 260 260 258 255 252 251 253 253 254 254 252 250 250 250 251 253 258 262 264 267 271 273 273 274
287 285 283 279 275 273 269 267 268 266 265 265 263 263 264 264 262 258 255 255 254 252 251 249 250 250 250 252 253 252 249 251 251 252 255 260 266 270 272 274 275 275 276
286 283 283 279 274 271 269 267 266 264 261 261 260 259 259 259 257 253 251 252 252 252 251 249 248 247 245 246 247 248 250 251 252 255 258 263 266 269 271 272 273 275 277
286 284 282 279 273 271 269 265 262 260 258 255 253 250 251 252 252 248 248 249 247 253 253 248 243 240 243 244 244 246 250 251 253 256 261 266 269 271 272 273 274 277 280
285 284 282 279 275 271 266 262 258 253 249 245 242 240 240 240 238 236 240 240 245 251 249 240 238 239 239 239 239 243 246 251 256 261 262 265 270 273 274 275 278 281 284
284 283 283 282 276 269 261 255 249 243 238 230 229 230 229 227 226 231 229 231 238 241 235 232 232 229 232 234 241 243 247 253 260 264 266 270 274 275 278 279 282 285 288
284 281 280 280 274 264 254 248 235 227 223 219 222 219 214 216 218 223 221 224 228 227 227 226 229 230 233 236 238 244 251 257 263 269 271 276 277 280 283 285 287 290 292
285 278 274 271 264 252 250 239 220 214 210 207 208 205 206 208 210 216 218 214 213 219 225 231 233 234 234 236 238 248 258 264 270 273 276 281 285 289 291 292 295 299 302
284 274 263 249 241 220 212 199 186 185 189 187 186 190 197 202 206 207 205 203 207 213 218 232 235 230 228 230 239 250 256 261 270 279 286 297 303 307 310 314 316 317 319
280 257 238 213 193 173 166 161 159 161 167 171 177 181 186 188 187 185 182 186 191 194 200 206 212 208 202 197 198 210 233 268 284 301 314 325 336 343 344 343 341 339 339
175 152 143 151 153 152 152 152 151 147 151 156 162 164 166 167 164 160 159 161 160 153 149 153 154 147 136 126 119 108 90 64 36 33 31 25 19 14 8 3 359 356 352
115 129 128 129 133 137 137 137 135 132 133 141 145 147 147 146 146 147 145 141 137 135 132 123 119 117 115 110 102 97 93 84 76 70 61 51 42 33 27 21 15 9 1
112 121 122 119 123 127 126 128 128 126 128 132 135 137 136 134 132 133 130 126 124 121 116 109 106 105 105 101 98 95 91 86 79 71 62 55 49 44 38 32 25 17 10
111 113 113 109 111 115 118 119 121 122 119 120 122 125 125 123 120 118 116 113 111 110 107 104 102 101 98 95 92 89 86 81 74 68 61 56 50 44 37 30 22 15 9
109 109 108 105 105 106 110 113 115 117 119 119 119 119 117 116 114 112 110 109 108 106 105 103 100 97 94 91 88 85 81 76 71 67 63 56 48 40 32 24 17 11 7
108 109 108 106 104 105 107 109 113 116 116 116 115 114 112 112 110 108 108 109 108 106 103 100 97 94 91 88 84 81 77 74 70 66 59 50 42 34 27 21 15 10 7
107 108 108 107 107 109 109 109 111 113 112 111 110 111 110 109 108 108 108 108 106 104 101 98 95 91 88 84 81 78 75 72 67 60 53 45 39 33 29 24 18 14 10
108 109 109 108 109 109 110 112 112 111 110 108 108 109 109 108 107 107 106 105 103 101 99 97 92 89 86 82 79 76 73 69 63 56 49 43 38 34 29 24 19 14 9
110 111 110 110 111 111 112 112 111 110 109 110 110 109 108 107 106 106 105 103 101 100 98 96 94 91 87 83 79 75 69 63 57 52 46 41 36 31 25 19 14 9 4
110 110 112 112 113 114 114 114 112 111 111 111 110 108 107 107 107 106 103 101 99 98 97 96 92 88 85 80 74 68 62 57 52 47 41 35 29 23 17 12 6 1 356
110 111 113 115 114 114 113 113 113 113 113 112 111 111 110 110 108 105 102 101 99 97 95 93 89 84 79 74 69 63 56 50 44 38 32 26 19 13 8 3 358 354 350
112 114 116 117 117 116 115 114 114 114 114 113 113 113 112 110 107 105 102 100 98 96 92 88 84 79 74 67 60 54 48 42 35 29 22 15 9 4 359 355 351 348 346
114 117 119 120 121 120 119 118 118 117 117 116 115 114 112 110 107 105 103 101 98 94 89 84 79 73 67 61 54 46 39 32 26 19 13 7 2 358 354 351 348 345 343
Height
5777 5776 5775 5773 5772 5771 5770 5770 5769 5769 5768 5768 5768 5768 5768 5767 5767 5767 5767 5768 5768 5769 5770 5770 5771 5772 5772 5774 5775 5776 5778 5779 5781 5781 5782 5782 5782 5782 5782 5782 5782 5782 5781
5768 5767 5765 5764 5763 5762 5762 5761 5761 5760 5760 5760 5760 5760 5760 5760 5760 5760 5760 5761 5761 5762 5762 5763 5764 5765 5766 5767 5768 5769 5770 5772 5773 5774 5774 5774 5775 5775 5775 5775 5775 5774 5773
5759 5757 5756 5755 5754 5753 5753 5752 5752 5752 5752 5752 5752 5753 5753 5753 5753 5753 5753 5754 5754 5755 5756 5757 5758 5759 5759 5760 5761 5763 5764 5765 5766 5767 5767 5768 5768 5768 5769 5768 5768 5767 5766
5750 5748 5746 5745 5745 5744 5744 5743 5744 5744 5744 5745 5745 5746 5746 5746 5746 5747 5747 5748 5749 5749 5750 5751 5752 5753 5754 5755 5756 5757 5758 5759 5760 5761 5761 5762 5762 5762 5762 5762 5761 5760 5759
5741 5740 5738 5737 5736 5735 5735 5735 5735 5736 5737 5738 5738 5739 5740 5740 5740 5741 5742 5743 5744 5744 5745 5746 5747 5748 5749 5750 5751 5752 5753 5754 5755 5756 5756 5757 5757 5757 5756 5755 5755 5753 5752
5733 5732 5730 5729 5728 5728 5728 5728 5729 5729 5730 5731 5732 5733 5734 5735 5735 5736 5737 5738 5739 5739 5740 5741 5742 5743 5744 5745 5746 5747 5748 5749 5750 5751 5751 5752 5751 5751 5750 5750 5749 5748 5746
5727 5725 5723 5722 5722 5721 5721 5722 5722 5723 5724 5726 5727 5728 5729 5730 5731 5732 5733 5734 5735 5735 5736 5737 5738 5739 5740 5741 5742 5743 5744 5745 5746 5747 5747 5747 5747 5746 5745 5744 5743 5742 5740
5720 5718 5717 5716 5716 5715 5715 5716 5717 5718 5719 5721 5723 5724 5725 5726 5727 5729 5730 5731 5731 5732 5733 5734 5735 5736 5737 5738 5739 5740 5741 5741 5742 5742 5743 5742 5742 5741 5740 5739 5738 5737 5735
5714 5713 5712 5711 5711 5710 5710 5711 5712 5714 5715 5717 5719 5720 5722 5723 5725 5726 5727 5728 5729 5730 5731 5731 5732 5733 5734 5735 5736 5737 5737 5738 5738 5738 5738 5738 5737 5737 5736 5735 5734 5732 5731
5709 5708 5708 5708 5707 5707 5707 5708 5709 5711 5712 5714 5716 5717 5719 5721 5722 5724 5725 5726 5727 5728 5728 5729 5730 5731 5732 5733 5734 5734 5735 5735 5735 5735 5735 5734 5734 5733 5732 5731 5730 5729 5727
5705 5705 5705 5705 5705 5705 5705 5706 5707 5709 5710 5712 5714 5715 5717 5719 5720 5722 5723 5724 5725 5726 5727 5727 5728 5729 5730 5730 5731 5732 5732 5732 5732 5732 5732 5731 5731 5730 5729 5728 5727 5726 5724
5702 5702 5702 5703 5703 5704 5704 5705 5706 5708 5709 5711 5713 5714 5716 5717 5719 5720 5721 5722 5723 5724 5725 5726 5726 5727 5728 5728 5729 5729 5730 5730 5730 5730 5730 5729 5729 5728 5727 5726 5725 5724 5722
5701 5701 5701 5702 5702 5703 5704 5705 5706 5708 5709 5711 5712 5714 5715 5717 5718 5719 5720 5721 5722 5723 5724 5724 5725 5726 5727 5727 5728 5728 5728 5729 5729 5729 5728 5728 5727 5726 5725 5724 5723 5722 5721
5700 5701 5701 5702 5703 5704 5705 5706 5707 5708 5709 5711 5712 5714 5715 5716 5718 5719 5720 5721 5722 5722 5723 5724 5725 5725 5726 5727 5727 5728 5728 5728 5728 5728 5727 5727 5726 5726 5725 5724 5723 5721 5720
5701 5701 5702 5702 5703 5705 5705 5706 5708 5709 5710 5712 5713 5714 5716 5717 5718 5720 5721 5722 5722 5723 5724 5725 5725 5726 5726 5727 5727 5728 5728 5728 5728 5728 5727 5727 5726 5725 5724 5723 5722 5721 5719
5701 5702 5703 5704 5705 5706 5707 5708 5709 5710 5711 5713 5714 5716 5717 5718 5719 5721 5721 5722 5723 5724 5725 5726 5726 5727 5727 5728 5728 5728 5729 5729 5729 5729 5728 5728 5727 5726 5725 5724 5722 5721 5719
5704 5705 5706 5706 5707 5708 5709 5710 5711 5712 5713 5714 5716 5717 5719 5720 5721 5722 5723 5724 5725 5726 5726 5727 5728 5728 5729 5729 5729 5730 5730 5730 5730 5730 5729 5728 5727 5726 5725 5724 5723 5721 5719
5707 5708 5709 5709 5710 5711 5712 5713 5714 5715 5716 5717 5719 5720 5721 5722 5723 5724 5725 5726 5727 5728 5729 5730 5730 5731 5731 5731 5732 5732 5732 5732 5731 5731 5730 5729 5728 5727 5726 5725 5723 5721 5719
5711 5712 5712 5713 5714 5715 5715 5716 5717 5718 5719 5721 5722 5723 5724 5725 5726 5727 5728 5729 5730 5731 5732 5733 5733 5734 5734 5734 5734 5734 5733 5733 5733 5732 5731 5730 5729 5728 5726 5725 5723 5721 5719
5715 5716 5716 5717 5718 5719 5719 5720 5721 5722 5724 5725 5726 5727 5728 5729 5730 5731 5732 5732 5733 5734 5735 5736 5736 5737 5737 5736 5736 5736 5736 5735 5735 5734 5733 5732 5730 5729 5727 5725 5723 5721 5719
5719 5719 5720 5721 5722 5723 5724 5725 5726 5727 5728 5729 5730 5731 5732 5733 5734 5734 5735 5736 5737 5737 5738 5739 5739 5739 5739 5739 5739 5739 5738 5737 5737 5736 5734 5733 5731 5730 5728 5726 5724 5721 5719
5723 5724 5724 5725 5726 5727 5728 5729 5730 5731 5732 5733 5734 5735 5736 5737 5738 5739 5739 5740 5740 5741 5741 5742 5742 5742 5742 5742 5742 5741 5741 5740 5739 5737 5736 5734 5733 5731 5729 5727 5724 5722 5719
5727 5728 5729 5730 5731 5732 5733 5734 5735 5736 5737 5738 5739 5740 5741 5742 5742 5743 5743 5744 5744 5744 5745 5745 5745 5745 5745 5745 5744 5744 5743 5742 5740 5739 5737 5736 5734 5732 5729 5727 5724 5721 5718
5732 5733 5734 5735 5736 5737 5738 5739 5740 5741 5742 5743 5743 5744 5745 5746 5746 5747 5747 5747 5748 5748 5748 5748 5748 5748 5748 5747 5746 5745 5744 5743 5742 5740 5738 5737 5734 5732 5729 5727 5723 5720 5716
5737 5738 5739 5740 5741 5742 5742 5743 5744 5745 5746 5747 5748 5748 5749 5750 5750 5750 5751 5751 5751 5751 5751 5751 5751 5750 5750 5749 5748 5747 5746 5744 5743 5741 5739 5737 5734 5732 5729 5725 5722 5718 5714
5741 5742 5743 5744 5745 5746 5746 5747 5748 5749 5750 5751 5751 5752 5753 5753 5753 5754 5754 5754 5754 5754 5754 5753 5753 5752 5752 5751 5750 5748 5747 5745 5744 5741 5739 5736 5734 5731 5727 5724 5720 5716 5712